Location: Ballingbuur
(53.0000°N, 5.7667°E)
Time: 19:46:38
(UTC+00:00)

Cosmos 2344 - Visible Passes

Search period start: 13 April 2021 00:00
Search period end: 23 April 2021 00:00
Orbit: 1241 x 3001 km, 63.3° (Epoch: 12 April)

Date Brightness Start Highest point End Pass type
(mag) Time Alt. Az. Time Alt. Az. Time Alt. Az.
13 Apr 4.9 02:14:01 10° NW 02:21:56 50° NNE 02:32:22 10° E visible
13 Apr 4.5 19:21:31 10° SSE 19:26:50 21° ESE 19:32:17 10° ENE visible
13 Apr 3.5 21:32:23 10° SW 21:39:48 85° SE 21:48:06 10° NE visible
13 Apr 4.6 23:47:53 10° W 23:55:08 46° NNW 00:03:56 10° ENE visible
14 Apr 4.9 02:03:42 10° NW 02:11:37 50° NNE 02:22:03 10° E visible
14 Apr 4.5 19:11:11 10° SSE 19:16:30 21° ESE 19:21:58 10° ENE visible
14 Apr 3.5 21:22:03 10° SW 21:29:29 85° SE 21:37:47 10° NE visible
14 Apr 4.7 23:37:34 10° W 23:44:49 46° NNW 23:53:36 10° ENE visible
15 Apr 4.9 01:53:23 10° NW 02:01:18 50° NNE 02:11:44 10° E visible
15 Apr 4.5 19:00:51 10° SSE 19:06:11 21° ESE 19:11:39 10° ENE visible
15 Apr 3.5 21:11:44 10° SW 21:19:09 85° SE 21:27:28 10° NE visible
15 Apr 4.7 23:27:14 10° W 23:34:30 46° NNW 23:43:18 10° ENE visible
16 Apr 4.9 01:43:04 10° NW 01:51:00 50° NNE 02:01:25 10° E visible
16 Apr 3.5 21:01:25 10° SW 21:08:50 85° SE 21:17:09 10° NE visible
16 Apr 4.7 23:16:56 10° W 23:24:11 46° NNW 23:32:59 10° ENE visible
17 Apr 4.9 01:32:45 10° NW 01:40:40 50° NNE 01:51:07 10° E visible
17 Apr 4.3 03:47:15 10° NW 03:56:09 83° SW 04:08:33 10° SE visible
17 Apr 3.5 20:51:06 10° SW 20:58:31 85° SE 21:06:49 10° NE visible
17 Apr 4.7 23:06:37 10° W 23:13:52 46° NNW 23:22:40 10° ENE visible
18 Apr 4.9 01:22:25 10° NW 01:30:21 50° NNE 01:40:48 10° E visible
18 Apr 4.3 03:36:56 10° NW 03:45:50 83° SW 03:58:14 10° SE visible
18 Apr 3.5 20:40:46 10° SW 20:48:12 86° SE 20:56:30 10° NE visible
18 Apr 4.7 22:56:18 10° W 23:03:33 46° NNW 23:12:21 10° ENE visible
19 Apr 4.9 01:12:07 10° NW 01:20:02 50° NNE 01:30:29 10° E visible
19 Apr 4.3 03:26:37 10° NW 03:35:30 82° SW 03:47:55 10° SE visible
19 Apr 3.5 20:30:27 10° SW 20:37:52 86° SE 20:46:11 10° NE visible
19 Apr 4.7 22:45:59 10° W 22:53:13 46° NNW 23:02:02 10° ENE visible
20 Apr 4.8 01:01:47 10° NW 01:09:43 50° NNE 01:20:10 10° E visible
20 Apr 4.3 03:16:17 10° NW 03:25:11 82° SW 03:37:35 10° SE visible
20 Apr 3.5 20:20:08 10° SW 20:27:33 86° SE 20:35:52 10° NE visible
20 Apr 4.7 22:35:39 10° W 22:42:54 46° NNW 22:51:43 10° ENE visible
21 Apr 4.8 00:51:28 10° NW 00:59:24 50° NNE 01:09:51 10° E visible
21 Apr 4.3 03:05:58 10° NW 03:14:52 82° SW 03:27:16 10° SE visible
21 Apr 3.6 20:09:48 10° SW 20:17:14 86° SE 20:25:32 10° NE visible
21 Apr 4.7 22:25:20 10° W 22:32:35 46° NNW 22:41:23 10° ENE visible
22 Apr 4.8 00:41:09 10° NW 00:49:04 51° NNE 00:59:32 10° E visible
22 Apr 4.3 02:55:39 10° NW 03:04:32 82° SW 03:16:57 10° SE visible
22 Apr 3.6 19:59:28 10° SW 20:06:54 86° SE 20:15:13 10° NE visible
22 Apr 4.8 22:15:01 10° W 22:22:16 46° NNW 22:31:03 10° ENE visible
